Time,TemperatureF,DewpointF,PressureIn,WindDirection,WindDirectionDegrees,WindSpeedMPH,WindSpeedGustMPH,Humidity,HourlyPrecipIn,Conditions,Clouds,dailyrainin,SoftwareType,DateUTC
2013-02-15 00:02:00,28.0,28.0,30.16,NNW,336,0.0,1.0,98,0.00,,,-99.99,,2013-02-15 05:02:00,
2013-02-15 00:12:00,28.0,28.0,30.16,NNW,336,0.0,1.0,98,0.00,,,-99.99,,2013-02-15 05:12:00,
2013-02-15 00:22:00,28.0,28.0,30.16,NNW,336,0.0,1.0,98,0.00,,,-99.99,,2013-02-15 05:22:00,
2013-02-15 00:32:00,28.0,28.0,30.16,West,277,0.0,0.0,98,0.00,,,-99.99,,2013-02-15 05:32:00,
2013-02-15 00:42:00,28.0,28.0,30.16,West,277,0.0,0.0,98,0.00,,,-99.99,,2013-02-15 05:42:00,
2013-02-15 00:52:00,28.0,28.0,30.16,West,277,0.0,0.0,98,0.00,,,-99.99,,2013-02-15 05:52:00,
2013-02-15 01:02:00,28.0,28.0,30.16,NW,314,0.0,0.0,99,0.00,,,-99.99,,2013-02-15 06:02:00,
2013-02-15 01:11:00,28.0,28.0,30.17,WNW,300,0.0,2.0,99,0.00,,,-99.99,,2013-02-15 06:11:00,
2013-02-15 01:22:00,28.0,28.0,30.17,WNW,300,0.0,2.0,99,0.00,,,-99.99,,2013-02-15 06:22:00,
2013-02-15 01:32:00,27.0,27.0,30.17,West,281,0.0,3.0,99,0.00,,,-99.99,,2013-02-15 06:32:00,
2013-02-15 01:42:00,27.0,27.0,30.17,West,281,0.0,3.0,99,0.00,,,-99.99,,2013-02-15 06:42:00,
2013-02-15 01:52:00,28.0,28.0,30.17,WNW,297,0.0,3.0,99,0.00,,,-99.99,,2013-02-15 06:52:00,
2013-02-15 02:01:00,28.0,28.0,30.17,NW,326,3.0,3.0,99,0.00,,,-99.99,,2013-02-15 07:01:00,
2013-02-15 02:11:00,28.0,28.0,30.17,NW,326,3.0,3.0,99,0.00,,,-99.99,,2013-02-15 07:11:00,
2013-02-15 02:21:00,28.0,28.0,30.17,NW,319,5.0,6.0,99,0.00,,,-99.99,,2013-02-15 07:21:00,
2013-02-15 02:32:00,28.0,28.0,30.16,NW,319,0.0,5.0,99,0.00,,,-99.99,,2013-02-15 07:32:00,
2013-02-15 02:42:00,28.0,28.0,30.16,NW,319,0.0,5.0,99,0.00,,,-99.99,,2013-02-15 07:42:00,
2013-02-15 02:52:00,28.0,28.0,30.16,NNW,329,1.0,6.0,99,0.00,,,-99.99,,2013-02-15 07:52:00,
2013-02-15 03:01:00,28.0,28.0,30.15,NNW,332,2.0,5.0,99,0.00,,,-99.99,,2013-02-15 08:01:00,
2013-02-15 03:11:00,28.0,28.0,30.15,NW,307,0.0,7.0,99,0.00,,,-99.99,,2013-02-15 08:11:00,
2013-02-15 03:21:00,28.0,28.0,30.15,NW,307,0.0,7.0,99,0.00,,,-99.99,,2013-02-15 08:21:00,
2013-02-15 03:32:00,28.0,28.0,30.15,NW,322,0.0,0.0,98,0.00,,,-99.99,,2013-02-15 08:32:00,
2013-02-15 03:42:00,28.0,28.0,30.15,NW,322,0.0,0.0,98,0.00,,,-99.99,,2013-02-15 08:42:00,
2013-02-15 03:52:00,28.0,28.0,30.15,NW,326,0.0,0.0,98,0.00,,,-99.99,,2013-02-15 08:52:00,
2013-02-15 04:02:00,28.0,28.0,30.15,WNW,302,0.0,2.0,98,0.00,,,-99.99,,2013-02-15 09:02:00,
2013-02-15 04:12:00,28.0,28.0,30.15,WNW,302,0.0,2.0,98,0.00,,,-99.99,,2013-02-15 09:12:00,
2013-02-15 04:21:00,28.0,28.0,30.14,WNW,295,0.0,4.0,98,0.00,,,-99.99,,2013-02-15 09:21:00,
2013-02-15 04:32:00,28.0,28.0,30.15,West,273,0.0,4.0,98,0.00,,,-99.99,,2013-02-15 09:32:00,
2013-02-15 04:42:00,28.0,28.0,30.15,West,273,0.0,4.0,98,0.00,,,-99.99,,2013-02-15 09:42:00,
2013-02-15 04:52:00,28.0,28.0,30.15,NNW,339,0.0,4.0,98,0.00,,,-99.99,,2013-02-15 09:52:00,
2013-02-15 05:01:00,27.0,27.0,30.15,NW,322,0.0,4.0,98,0.00,,,-99.99,,2013-02-15 10:01:00,
2013-02-15 05:11:00,27.0,27.0,30.15,NW,322,0.0,4.0,98,0.00,,,-99.99,,2013-02-15 10:11:00,
2013-02-15 05:21:00,27.0,27.0,30.15,NW,315,3.0,4.0,99,0.00,,,-99.99,,2013-02-15 10:21:00,
2013-02-15 05:32:00,27.0,27.0,30.16,NW,318,0.0,3.0,99,0.00,,,-99.99,,2013-02-15 10:32:00,
2013-02-15 05:42:00,27.0,27.0,30.16,NW,318,0.0,3.0,99,0.00,,,-99.99,,2013-02-15 10:42:00,
2013-02-15 05:51:00,27.0,27.0,30.15,NW,318,0.0,0.0,99,0.00,,,-99.99,,2013-02-15 10:51:00,
2013-02-15 06:01:00,27.0,27.0,30.15,NW,314,4.0,5.0,99,0.00,,,-99.99,,2013-02-15 11:01:00,
2013-02-15 06:11:00,27.0,27.0,30.15,NW,314,4.0,5.0,99,0.00,,,-99.99,,2013-02-15 11:11:00,
2013-02-15 06:23:00,27.0,27.0,30.15,NW,321,0.0,3.0,99,0.00,,,-99.99,,2013-02-15 11:23:00,
2013-02-15 06:32:00,27.0,27.0,30.16,NNW,330,0.0,0.0,98,0.00,,,-99.99,,2013-02-15 11:32:00,
2013-02-15 06:42:00,27.0,27.0,30.16,NNW,330,0.0,0.0,98,0.00,,,-99.99,,2013-02-15 11:42:00,
2013-02-15 06:52:00,27.0,27.0,30.16,NW,304,0.0,1.0,98,0.00,,,-99.99,,2013-02-15 11:52:00,
2013-02-15 07:02:00,27.0,27.0,30.16,West,281,0.0,6.0,98,0.00,,,-99.99,,2013-02-15 12:02:00,
2013-02-15 07:11:00,27.0,27.0,30.16,West,281,0.0,6.0,98,0.00,,,-99.99,,2013-02-15 12:11:00,
2013-02-15 07:21:00,27.0,27.0,30.17,WNW,301,0.0,2.0,98,0.00,,,-99.99,,2013-02-15 12:21:00,
2013-02-15 07:32:00,27.0,27.0,30.17,West,274,0.0,0.0,98,0.00,,,-99.99,,2013-02-15 12:32:00,
2013-02-15 07:42:00,27.0,27.0,30.17,West,274,0.0,0.0,98,0.00,,,-99.99,,2013-02-15 12:42:00,
2013-02-15 07:52:00,27.0,27.0,30.18,NNW,342,0.0,0.0,98,0.00,,,-99.99,,2013-02-15 12:52:00,
2013-02-15 08:02:00,28.0,28.0,30.18,NW,309,0.0,1.0,98,0.00,,,-99.99,,2013-02-15 13:02:00,
2013-02-15 08:11:00,29.0,29.0,30.18,WNW,301,0.0,0.0,98,0.00,,,-99.99,,2013-02-15 13:11:00,
2013-02-15 08:22:00,29.0,29.0,30.18,WNW,301,0.0,0.0,98,0.00,,,-99.99,,2013-02-15 13:22:00,
2013-02-15 08:32:00,30.0,29.0,30.19,WNW,300,0.0,0.0,97,0.00,,,-99.99,,2013-02-15 13:32:00,
2013-02-15 08:42:00,30.0,29.0,30.19,WNW,300,0.0,0.0,97,0.00,,,-99.99,,2013-02-15 13:42:00,
2013-02-15 08:52:00,30.0,29.0,30.20,WNW,284,0.0,2.0,97,0.00,,,-99.99,,2013-02-15 13:52:00,
2013-02-15 09:01:00,31.0,30.0,30.20,NW,309,4.0,7.0,97,0.00,,,-99.99,,2013-02-15 14:01:00,
2013-02-15 09:12:00,31.0,30.0,30.20,NW,309,4.0,7.0,97,0.00,,,-99.99,,2013-02-15 14:12:00,
2013-02-15 09:21:00,33.0,32.0,30.20,NW,307,0.0,6.0,96,0.00,,,-99.99,,2013-02-15 14:21:00,
2013-02-15 09:32:00,36.0,34.0,30.20,NW,312,5.0,6.0,94,0.00,,,-99.99,,2013-02-15 14:32:00,
2013-02-15 09:42:00,36.0,34.0,30.20,NW,312,5.0,6.0,94,0.00,,,-99.99,,2013-02-15 14:42:00,
2013-02-15 09:52:00,38.0,36.0,30.20,NNW,330,3.0,6.0,91,0.00,,,-99.99,,2013-02-15 14:52:00,
2013-02-15 10:02:00,39.0,35.0,30.20,North,353,5.0,8.0,86,0.00,,,-99.99,,2013-02-15 15:02:00,
2013-02-15 10:11:00,39.0,35.0,30.20,North,353,5.0,8.0,86,0.00,,,-99.99,,2013-02-15 15:11:00,
2013-02-15 10:21:00,40.0,36.0,30.20,North,11,4.0,8.0,84,0.00,,,-99.99,,2013-02-15 15:21:00,
2013-02-15 10:32:00,41.0,35.0,30.19,WNW,291,8.0,8.0,79,0.00,,,-99.99,,2013-02-15 15:32:00,
2013-02-15 10:42:00,41.0,35.0,30.19,WNW,297,6.0,14.0,80,0.00,,,-99.99,,2013-02-15 15:42:00,
2013-02-15 10:52:00,41.0,35.0,30.19,WNW,297,6.0,14.0,80,0.00,,,-99.99,,2013-02-15 15:52:00,
2013-02-15 11:02:00,43.0,36.0,30.19,NW,311,5.0,14.0,76,0.00,,,-99.99,,2013-02-15 16:02:00,
2013-02-15 11:11:00,43.0,36.0,30.19,NW,311,5.0,14.0,76,0.00,,,-99.99,,2013-02-15 16:11:00,
2013-02-15 11:22:00,43.0,35.0,30.19,NW,318,6.0,11.0,74,0.00,,,-99.99,,2013-02-15 16:22:00,
2013-02-15 11:32:00,44.0,35.0,30.19,West,280,2.0,16.0,70,0.00,,,-99.99,,2013-02-15 16:32:00,
2013-02-15 11:42:00,44.0,35.0,30.19,West,280,2.0,16.0,70,0.00,,,-99.99,,2013-02-15 16:42:00,
2013-02-15 11:52:00,44.0,35.0,30.19,NW,309,12.0,12.0,71,0.00,,,-99.99,,2013-02-15 16:52:00,
2013-02-15 12:01:00,44.0,34.0,30.18,NNW,329,3.0,9.0,69,0.00,,,-99.99,,2013-02-15 17:01:00,
2013-02-15 12:11:00,45.0,35.0,30.18,NW,314,3.0,9.0,67,0.00,,,-99.99,,2013-02-15 17:11:00,
2013-02-15 12:21:00,45.0,35.0,30.18,NW,314,3.0,9.0,67,0.00,,,-99.99,,2013-02-15 17:21:00,
2013-02-15 12:32:00,46.0,36.0,30.18,NW,326,5.0,10.0,68,0.01,,,-99.99,,2013-02-15 17:32:00,
2013-02-15 12:52:00,45.0,35.0,30.17,NW,308,9.0,13.0,67,0.01,,,-99.99,,2013-02-15 17:52:00,
2013-02-15 13:02:00,46.0,35.0,30.17,NW,309,5.0,10.0,65,0.01,,,-99.99,,2013-02-15 18:02:00,
2013-02-15 13:21:00,45.0,34.0,30.16,West,271,3.0,10.0,65,0.01,,,-99.99,,2013-02-15 18:21:00,
2013-02-15 13:32:00,46.0,35.0,30.16,WNW,297,4.0,8.0,64,0.00,,,-99.99,,2013-02-15 18:32:00,
2013-02-15 13:52:00,44.0,33.0,30.16,NNW,335,3.0,12.0,65,0.00,,,-99.99,,2013-02-15 18:52:00,
2013-02-15 14:02:00,45.0,33.0,30.14,NW,305,11.0,11.0,63,0.00,,,-99.99,,2013-02-15 19:02:00,
2013-02-15 14:22:00,48.0,35.0,30.14,NW,307,2.0,14.0,60,0.00,,,-99.99,,2013-02-15 19:22:00,
2013-02-15 14:32:00,46.0,34.0,30.13,NW,323,6.0,9.0,62,0.00,,,-99.99,,2013-02-15 19:32:00,
2013-02-15 14:52:00,46.0,35.0,30.13,NW,319,11.0,17.0,64,0.00,,,-99.99,,2013-02-15 19:52:00,
2013-02-15 15:01:00,43.0,33.0,30.12,NW,315,8.0,10.0,67,0.00,,,-99.99,,2013-02-15 20:01:00,
2013-02-15 15:21:00,42.0,33.0,30.12,NW,323,7.0,7.0,69,0.00,,,-99.99,,2013-02-15 20:21:00,
2013-02-15 15:32:00,41.0,35.0,30.12,WNW,290,3.0,5.0,79,0.00,,,-99.99,,2013-02-15 20:32:00,
2013-02-15 15:52:00,40.0,34.0,30.12,NW,315,0.0,8.0,80,0.00,,,-99.99,,2013-02-15 20:52:00,
2013-02-15 16:02:00,40.0,34.0,30.11,WNW,294,5.0,5.0,79,0.00,,,-99.99,,2013-02-15 21:02:00,
2013-02-15 16:11:00,40.0,34.0,30.11,WNW,294,5.0,5.0,79,0.00,,,-99.99,,2013-02-15 21:11:00,
2013-02-15 16:22:00,41.0,35.0,30.12,WNW,302,1.0,3.0,78,0.00,,,-99.99,,2013-02-15 21:22:00,
2013-02-15 16:32:00,39.0,35.0,30.11,WNW,301,3.0,8.0,86,0.00,,,-99.99,,2013-02-15 21:32:00,
2013-02-15 16:42:00,39.0,35.0,30.11,WNW,301,3.0,8.0,86,0.00,,,-99.99,,2013-02-15 21:42:00,
2013-02-15 16:52:00,38.0,36.0,30.12,NW,314,3.0,8.0,91,0.00,,,-99.99,,2013-02-15 21:52:00,
2013-02-15 17:02:00,37.0,36.0,30.12,NNW,328,6.0,9.0,95,0.00,,,-99.99,,2013-02-15 22:02:00,
2013-02-15 17:11:00,36.0,35.0,30.12,WNW,302,2.0,8.0,95,0.00,,,-99.99,,2013-02-15 22:11:00,
2013-02-15 17:22:00,36.0,35.0,30.12,WNW,302,2.0,8.0,95,0.00,,,-99.99,,2013-02-15 22:22:00,
2013-02-15 17:32:00,36.0,35.0,30.12,WSW,238,2.0,7.0,95,0.00,,,-99.99,,2013-02-15 22:32:00,
2013-02-15 17:42:00,36.0,35.0,30.12,WSW,238,2.0,7.0,95,0.00,,,-99.99,,2013-02-15 22:42:00,
2013-02-15 17:51:00,36.0,35.0,30.11,NNW,342,1.0,6.0,96,0.00,,,-99.99,,2013-02-15 22:51:00,
2013-02-15 18:02:00,34.0,34.0,30.11,North,1,4.0,7.0,98,0.00,,,-99.99,,2013-02-15 23:02:00,
2013-02-15 18:11:00,34.0,34.0,30.11,North,1,4.0,7.0,98,0.00,,,-99.99,,2013-02-15 23:11:00,
2013-02-15 18:21:00,33.0,32.0,30.12,WNW,301,2.0,6.0,98,0.00,,,-99.99,,2013-02-15 23:21:00,
2013-02-15 18:32:00,32.0,32.0,30.12,NNW,335,0.0,3.0,99,0.00,,,-99.99,,2013-02-15 23:32:00,
2013-02-15 18:42:00,32.0,32.0,30.12,NNW,335,0.0,3.0,99,0.00,,,-99.99,,2013-02-15 23:42:00,
2013-02-15 18:52:00,31.0,31.0,30.13,North,359,3.0,3.0,99,0.00,,,-99.99,,2013-02-15 23:52:00,
2013-02-15 19:02:00,31.0,31.0,30.13,West,270,0.0,0.0,99,0.00,,,-99.99,,2013-02-16 00:02:00,
2013-02-15 19:11:00,31.0,31.0,30.13,West,270,0.0,0.0,99,0.00,,,-99.99,,2013-02-16 00:11:00,
2013-02-15 19:21:00,30.0,30.0,30.13,North,1,0.0,0.0,99,0.00,,,-99.99,,2013-02-16 00:21:00,
2013-02-15 19:32:00,30.0,30.0,30.12,North,3,0.0,0.0,99,0.00,,,-99.99,,2013-02-16 00:32:00,
2013-02-15 19:41:00,30.0,30.0,30.12,North,3,0.0,0.0,99,0.00,,,-99.99,,2013-02-16 00:41:00,
2013-02-15 19:51:00,30.0,30.0,30.12,North,357,0.0,3.0,99,0.00,,,-99.99,,2013-02-16 00:51:00,
2013-02-15 20:02:00,29.0,29.0,30.12,North,0,0.0,3.0,99,0.00,,,-99.99,,2013-02-16 01:02:00,
2013-02-15 20:11:00,29.0,29.0,30.12,North,0,0.0,3.0,99,0.00,,,-99.99,,2013-02-16 01:11:00,
2013-02-15 20:21:00,29.0,29.0,30.13,North,352,0.0,3.0,99,0.00,,,-99.99,,2013-02-16 01:21:00,
2013-02-15 20:32:00,28.0,28.0,30.12,NNE,20,0.0,2.0,99,0.00,,,-99.99,,2013-02-16 01:32:00,
2013-02-15 20:42:00,28.0,28.0,30.12,NNE,20,0.0,2.0,99,0.00,,,-99.99,,2013-02-16 01:42:00,
2013-02-15 20:52:00,28.0,28.0,30.12,North,359,0.0,5.0,99,0.00,,,-99.99,,2013-02-16 01:52:00,
2013-02-15 21:01:00,28.0,28.0,30.12,NNW,329,0.0,3.0,99,0.00,,,-99.99,,2013-02-16 02:01:00,
2013-02-15 21:11:00,28.0,28.0,30.11,NNW,329,0.0,0.0,99,0.00,,,-99.99,,2013-02-16 02:11:00,
2013-02-15 21:21:00,28.0,28.0,30.11,NNW,329,0.0,0.0,99,0.00,,,-99.99,,2013-02-16 02:21:00,
2013-02-15 21:32:00,27.0,27.0,30.10,NNE,17,0.0,0.0,99,0.00,,,-99.99,,2013-02-16 02:32:00,
2013-02-15 21:42:00,27.0,27.0,30.10,NNE,17,0.0,0.0,99,0.00,,,-99.99,,2013-02-16 02:42:00,
2013-02-15 21:52:00,27.0,27.0,30.09,South,180,0.0,3.0,99,0.00,,,-99.99,,2013-02-16 02:52:00,
2013-02-15 22:02:00,27.0,27.0,30.09,NW,312,0.0,1.0,99,0.00,,,-99.99,,2013-02-16 03:02:00,
2013-02-15 22:11:00,27.0,27.0,30.09,North,359,0.0,1.0,99,0.00,,,-99.99,,2013-02-16 03:11:00,
2013-02-15 22:21:00,27.0,27.0,30.09,North,359,0.0,1.0,99,0.00,,,-99.99,,2013-02-16 03:21:00,
2013-02-15 22:32:00,27.0,27.0,30.09,NNW,333,0.0,1.0,99,0.00,,,-99.99,,2013-02-16 03:32:00,
2013-02-15 22:42:00,27.0,27.0,30.09,NNW,333,0.0,1.0,99,0.00,,,-99.99,,2013-02-16 03:42:00,
2013-02-15 22:52:00,26.0,26.0,30.09,NNW,333,0.0,0.0,99,0.00,,,-99.99,,2013-02-16 03:52:00,
2013-02-15 23:01:00,26.0,26.0,30.10,NW,312,0.0,0.0,99,0.00,,,-99.99,,2013-02-16 04:01:00,
2013-02-15 23:11:00,26.0,26.0,30.11,North,359,0.0,1.0,99,0.00,,,-99.99,,2013-02-16 04:11:00,
2013-02-15 23:21:00,26.0,26.0,30.11,North,359,0.0,1.0,99,0.00,,,-99.99,,2013-02-16 04:21:00,
2013-02-15 23:32:00,25.0,25.0,30.09,North,359,0.0,0.0,99,0.00,,,-99.99,,2013-02-16 04:32:00,
2013-02-15 23:42:00,25.0,25.0,30.09,North,359,0.0,0.0,99,0.00,,,-99.99,,2013-02-16 04:42:00,
2013-02-15 23:51:00,25.0,25.0,30.09,North,359,0.0,0.0,99,0.00,,,-99.99,,2013-02-16 04:51:00,